Weather History for EGKB - August, 2013

Change the Weather History Date:

Friday, August 2, 2013

  Actual Average Record
Temperature  
Mean Temperature 68 °F -  
Max Temperature 73 °F 70 °F 86 °F (1999)
Min Temperature 62 °F 58 °F 53 °F (1998)
Cooling Degree Days 2    
Growing Degree Days 18 (Base 50)    
Moisture  
Dew Point 60 °F    
Average Humidity 78    
Maximum Humidity 100    
Minimum Humidity 57    
Precipitation  
Precipitation 0.00 in - - ()
Sea Level Pressure  
Sea Level Pressure 29.82 in    
Wind  
Wind Speed 8 mph ()    
Max Wind Speed 13 mph    
Max Gust Speed -    
Visibility 6.0 miles    
Events Rain , Thunderstorm    
Averages and records for this station are not official NWS values.
T = Trace of Precipitation, MM = Missing Value Source: Averaged Metar Reports

Daily Weather History Graph

Daily Weather History Graph

Search for Another Location

Airport or City:

Trip Planner

Search our weather history database for the weather conditions in past years. The results will help you decide how hot, cold, wet, or windy it might be!

Date:

Astronomy

Aug. 02, 2013 Rise Set
Actual Time 5:25 AM BST 8:45 PM BST
Civil Twilight 4:45 AM BST 9:25 PM BST
Nautical Twilight 3:52 AM BST 10:18 PM BST
Astronomical Twilight 2:38 AM BST 11:29 PM BST
Moon 1:30 AM BST 5:36 PM BST
Length of Visible Light 16h 39m
Length of Day
15h 19m
Waning Crescent, 17% of the Moon is Illuminated
Aug 2
Waning Crescent
Aug 6
New
Aug 14
First Quarter
Aug 21
Full
Aug 28
Last Quarter

Hourly Weather History & Observations

Time (BST) Temp. Dew Point Humidity Pressure Visibility Wind Dir Wind Speed Gust Speed Precip Events Conditions
7:20 AM 62.6 °F 59.0 °F 88% 29.86 in 6.2 mi SW 12.7 mph - N/A Thunderstorm Thunderstorm
7:50 AM 62.6 °F 60.8 °F 94% 29.80 in 6.2 mi SSW 5.8 mph - N/A Thunderstorm Mostly Cloudy
8:20 AM 62.6 °F 60.8 °F 94% 29.80 in 6.2 mi SSW 5.8 mph - N/A   Mostly Cloudy
8:50 AM 62.6 °F 59.0 °F 88% 29.83 in 5.0 mi SW 9.2 mph - N/A Rain , Thunderstorm Thunderstorms and Rain
9:20 AM 62.6 °F 60.8 °F 94% 29.80 in 5.0 mi South 4.6 mph - N/A Rain , Thunderstorm Light Thunderstorms and Rain
9:50 AM 62.6 °F 62.6 °F 100% 29.83 in 5.0 mi SSW 5.8 mph - N/A Rain Light Rain
10:20 AM 64.4 °F 62.6 °F 94% 29.83 in 6.2 mi SW 8.1 mph - N/A   Mostly Cloudy
10:50 AM 64.4 °F 60.8 °F 88% 29.83 in 6.2 mi SSW 6.9 mph - N/A   Mostly Cloudy
11:20 AM 66.2 °F 62.6 °F 88% 29.83 in 5.6 mi SSW 6.9 mph - N/A   Mostly Cloudy
11:50 AM 68.0 °F 62.6 °F 83% 29.83 in 6.2 mi South 8.1 mph - N/A   Mostly Cloudy
12:20 PM 68.0 °F 62.6 °F 83% 29.83 in 6.2 mi SW 9.2 mph - N/A   Mostly Cloudy
12:50 PM 68.0 °F 62.6 °F 83% 29.83 in 6.2 mi SW 8.1 mph - N/A   Mostly Cloudy
1:20 PM 68.0 °F 62.6 °F 83% 29.83 in 6.2 mi SW 8.1 mph - N/A   Mostly Cloudy
1:50 PM 66.2 °F 60.8 °F 83% 29.83 in 6.2 mi SW 9.2 mph - N/A   Mostly Cloudy
2:20 PM 69.8 °F 62.6 °F 78% 29.83 in 6.2 mi SW 8.1 mph - N/A   Mostly Cloudy
2:50 PM 69.8 °F 62.6 °F 78% 29.83 in 6.2 mi South 9.2 mph - N/A   Mostly Cloudy
3:20 PM 71.6 °F 62.6 °F 73% 29.83 in 6.2 mi SSW 8.1 mph - N/A   Scattered Clouds
4:20 PM 73.4 °F 60.8 °F 65% 29.80 in 6.2 mi SSW 11.5 mph - N/A   Scattered Clouds
4:50 PM 73.4 °F 59.0 °F 61% 29.80 in 6.2 mi SW 12.7 mph - N/A   Scattered Clouds
5:20 PM 73.4 °F 57.2 °F 57% 29.80 in 6.2 mi SSW 12.7 mph - N/A   Partly Cloudy
5:50 PM 71.6 °F 55.4 °F 57% 29.80 in 6.2 mi SW 12.7 mph - N/A   Partly Cloudy
6:20 PM 71.6 °F 55.4 °F 57% 29.80 in 6.2 mi SW 10.4 mph - N/A   Partly Cloudy
6:50 PM 68.0 °F 53.6 °F 60% 29.83 in 6.2 mi SW 9.2 mph - N/A   Partly Cloudy
7:20 PM 68.0 °F 57.2 °F 68% 29.83 in 6.2 mi SW 9.2 mph - N/A   Partly Cloudy
7:50 PM 68.0 °F 57.2 °F 68% 29.83 in 6.2 mi SSW 6.9 mph - N/A   Partly Cloudy
8:20 PM 64.4 °F 55.4 °F 73% 29.83 in 6.2 mi SW 9.2 mph - N/A   Partly Cloudy
8:50 PM 64.4 °F 57.2 °F 77% 29.83 in 6.2 mi SSW 8.1 mph - N/A   Partly Cloudy